Location: Hobi?a Gr?di?te
(45.4833°N, 22.7833°E)
Time: 10:46:51
(UTC+00:00)

NOAA 6 - Pass Details

Date: 28 January 2023
Orbit: 770 x 786 km, 98.7° (Epoch: 31 March)

Event Time Altitude Azimuth Distance (km) Brightness Sun altitude
Rises 16:02:59 0° 158° (SSE) 3,242 7.2 -6.3°
Reaches altitude 10° 16:05:17 10° 156° (SSE) 2,321 6.5 -6.7°
Maximum altitude 16:10:23 72° 73° (ENE) 822 4.0 -7.5°
Drops below altitude 10° 16:15:32 10° 350° (N) 2,349 6.5 -8.4°
Sets 16:17:53 0° 348° (NNW) 3,284 7.2 -8.8°
